"Pseudo-MPEC" for P213r5K

Created 2020 Aug 6 7:07:15 UT using Find_Orb

Click here for an explanation of pseudo-MPECs

 
 Astrometry: 
     P213r5K  C2020 07 31p*t7?*j,-lAstrometry(5EVdmx64VOU1\,N^KgbI7FD(?(sK5eTF52
     P213r5K  C2020 07 31%0diredacted;#bY8s/G*ES2]XSE'jE%Md-F6w1ju.ERq%jjhkNgF52
     P213r5K  C2020 07 31D`KV:J^^pc14K1JHvnJq#o$NNnrp:F88`coTg-m7pXLAjvCfEm8=F52
     P213r5K pC2020 08 01Pkd$T=bqfq^sPCv?@RbawVySMo)rclick3_4laBc$9OORHm(ki^dL01
     P213r5K KC2020 08 0106Mqh]JA0s%(,qx9a^S63_8g^I%HY;O*]2.YB'8%here4Vv265NtL01
     P213r5K KC2020 08 01Ba'WgHokM=$Cm/ZY=9y+[3bWyRFM'Clh$#0Mr!Ti%w6hXp`KL_W-L01
     P213r5K pC2020 08 01LsforKKdSRaEuf_9t:m=?ETbWJ(va_]3X!8^?kj'j?ml$`@-^8,8L01
     P213r5K  C2020 08 01cVl8=+O*PvoBFP2fwYj]S/E7!Q)U;y1a7(lff0pbf@*3JqyHPC_)F51
     P213r5K  C2020 08 01,*u-6XbQXM8IU^jAo`*5ZhH+_!S5ElsQwH93U8)0^n,Z=FdS[RUfF51
     P213r5K  C2020 08 01lWs'VeT-)]VGO_1explanationkwQWwxuPY(`yt=rUs70ZTf5]IkF51

Station data:
(F51) Pan-STARRS 1, Haleakala  (N20.707235 W156.255910)  US/Hawaii.
   Observers N. Primak, A. Schultz, S. Watters, J. Thiel, T. Goggia. Measurer
   PS1 Science Consortium. 1.8-m Ritchey-Chrétien + CCD.
(F52) Pan-STARRS 2, Haleakala  (N20.707384 W156.255910)  US/Hawaii. 1.8-m
   Ritchey-Chrétien + CCD.
(L01) Višnjan Observatory, Tičan  (N45.290900 E13.749300)  Croatia.
   Observers K. Korlević, E. Pettarin. Measurer E. Pettarin. 1.0-m f/2.9
   reflector + CCD.

Orbital elements:  P213r5K
   Perihelion 2020 Oct 7.814817 +/- 4.36 TT = 19:33:20 (JD 2459130.314817)
Epoch 2020 Aug  1.0 TT = JDT 2459062.5   Earth MOID: 0.1488   Ma: 0.0373
M 327.85230124 +/- 5.2              (J2000 ecliptic)          AutoNEOCP
n   0.47405125 +/- 0.0512           Peri.  248.34915 +/- 4.8
a   1.62899287 +/- 0.117            Node   143.04403 +/- 0.6
e   0.3524004 +/- 0.0346            Incl.   10.70842 +/- 0.38
P   2.08/759.40d           H 20.9   G  0.15   U 10.7  
q 1.05493497 +/- 0.0232    Q 2.20305076 +/- 0.233
From 10 observations 2020 July 31-Aug. 1 (24.8 hr); mean residual 0".32
Residuals in arcseconds: 
200731 F52  .00   .11-    200801 L01  .15+  .27-    200801 F51  .17-  .03-    
200731 F52  .05-  .09-    200801 L01  .11-  .09-    200801 F51  .06+  .02+    
200731 F52  .04+  .17+    200801 L01  .94-  .13+    
200801 L01  .90+  .30+    200801 F51  .12+  .03-    

Ephemerides (geocentric):
Date (UTC) HH   RA              Dec         delta   r     elong  mag " sig PA
---- -- -- --  -------------   -----------  ------ ------ -----  --- ---- ---
2020 08 06 07  01 29 24.090   +04 09 29.96  .38868 1.2129 111.7 21.1 40.3  95
2020 08 06 08  01 29 36.336   +04 09 20.50  .38846 1.2128 111.7 21.1 41.0  95
2020 08 06 09  01 29 48.590   +04 09 10.98  .38824 1.2126 111.7 21.1 41.7  95
2020 08 06 10  01 30 00.850   +04 09 01.41  .38802 1.2124 111.7 21.1 42.5  95
2020 08 06 11  01 30 13.118   +04 08 51.78  .38780 1.2122 111.7 21.1 43.2  95
2020 08 06 12  01 30 25.394   +04 08 42.09  .38758 1.2120 111.7 21.1 43.9  95
2020 08 06 13  01 30 37.677   +04 08 32.34  .38736 1.2118 111.7 21.1 44.7  95
2020 08 06 14  01 30 49.968   +04 08 22.54  .38714 1.2117 111.6 21.1 45.4  95
2020 08 06 15  01 31 02.266   +04 08 12.68  .38693 1.2115 111.6 21.1 46.2  95
2020 08 06 16  01 31 14.571   +04 08 02.76  .38671 1.2113 111.6 21.1 46.9  95
2020 08 06 17  01 31 26.884   +04 07 52.79  .38649 1.2111 111.6 21.1 47.7  95
2020 08 06 18  01 31 39.204   +04 07 42.76  .38627 1.2109 111.6 21.1 48.5  95
2020 08 06 19  01 31 51.532   +04 07 32.67  .38605 1.2107 111.6 21.1 49.3  95
2020 08 06 20  01 32 03.867   +04 07 22.53  .38584 1.2106 111.6 21.1 50.1  95
2020 08 06 21  01 32 16.209   +04 07 12.32  .38562 1.2104 111.6 21.1 50.9  95
2020 08 06 22  01 32 28.559   +04 07 02.06  .38540 1.2102 111.6 21.1 51.7  95
2020 08 06 23  01 32 40.916   +04 06 51.75  .38518 1.2100 111.6 21.1 52.5  95
2020 08 07 00  01 32 53.281   +04 06 41.37  .38497 1.2098 111.6 21.1 53.3  95
2020 08 07 01  01 33 05.653   +04 06 30.94  .38475 1.2097 111.6 21.1 54.1  95
2020 08 07 02  01 33 18.033   +04 06 20.45  .38454 1.2095 111.6 21.1 55.0  95
2020 08 07 03  01 33 30.420   +04 06 09.90  .38432 1.2093 111.5 21.1 55.8  95
2020 08 07 04  01 33 42.814   +04 05 59.30  .38411 1.2091 111.5 21.1 56.6  95
2020 08 07 05  01 33 55.216   +04 05 48.63  .38389 1.2089 111.5 21.1 57.5  95
2020 08 07 06  01 34 07.625   +04 05 37.91  .38368 1.2087 111.5 21.1 58.4  95
2020 08 07 07  01 34 20.041   +04 05 27.14  .38346 1.2086 111.5 21.1 59.2  95
2020 08 07 08  01 34 32.465   +04 05 16.30  .38325 1.2084 111.5 21.1 60.1  95
2020 08 07 09  01 34 44.896   +04 05 05.41  .38303 1.2082 111.5 21.1 61.0  95
2020 08 07 10  01 34 57.335   +04 04 54.46  .38282 1.2080 111.5 21.1 61.9  95
2020 08 07 11  01 35 09.781   +04 04 43.45  .38261 1.2078 111.5 21.1 62.8  95
2020 08 07 12  01 35 22.234   +04 04 32.38  .38239 1.2077 111.5 21.1 63.7  95
2020 08 07 13  01 35 34.695   +04 04 21.26  .38218 1.2075 111.5 21.1 64.6  95
2020 08 07 14  01 35 47.163   +04 04 10.07  .38197 1.2073 111.5 21.1 65.5  95
2020 08 07 15  01 35 59.638   +04 03 58.83  .38175 1.2071 111.5 21.1 66.5  95
2020 08 07 16  01 36 12.121   +04 03 47.53  .38154 1.2069 111.4 21.1 67.4  95
2020 08 07 17  01 36 24.611   +04 03 36.18  .38133 1.2068 111.4 21.1 68.3  95
2020 08 07 18  01 36 37.109   +04 03 24.76  .38112 1.2066 111.4 21.1 69.3  95
2020 08 07 19  01 36 49.614   +04 03 13.29  .38091 1.2064 111.4 21.1 70.3  95
2020 08 07 20  01 37 02.126   +04 03 01.76  .38070 1.2062 111.4 21.1 71.2  95
2020 08 07 21  01 37 14.645   +04 02 50.17  .38049 1.2060 111.4 21.1 72.2  95
2020 08 07 22  01 37 27.172   +04 02 38.52  .38028 1.2058 111.4 21.1 73.2  95
2020 08 07 23  01 37 39.706   +04 02 26.81  .38007 1.2057 111.4 21.1 74.2  95
2020 08 08 00  01 37 52.248   +04 02 15.05  .37986 1.2055 111.4 21.1 75.2  95
2020 08 08 01  01 38 04.796   +04 02 03.23  .37965 1.2053 111.4 21.1 76.2  95
2020 08 08 02  01 38 17.353   +04 01 51.34  .37944 1.2051 111.4 21.1 77.2  95
2020 08 08 03  01 38 29.916   +04 01 39.40  .37923 1.2049 111.3 21.1 78.2  95
2020 08 08 04  01 38 42.487   +04 01 27.41  .37902 1.2048 111.3 21.1 79.2  95
2020 08 08 05  01 38 55.065   +04 01 15.35  .37881 1.2046 111.3 21.1 80.3  95
2020 08 08 06  01 39 07.650   +04 01 03.23  .37860 1.2044 111.3 21.1 81.3  95